Starlink 3520

operational
NORAD ID: 51741 Int'l Des: 2022-016 Owner: SPXS Country: US Constellation: starlink
LEOCIRCULAR

About Starlink 3520

Description loading...

Live Position

Loading 3D Globe...

Upcoming Passes

Altitude History

Altitude vs Time

uPlot chart will show altitude changes over time

Two-Line Element Set

1 51741U 22016AD 25305.33502765 -.00000160 00000-0 80651-5 0 9998
2 51741 53.2156 175.3379 0001531 95.3415 264.7752 15.08834400204185
Epoch: Nov 1, 2025 • Age: 21 hours

Current Status

Altitude 545.0 km
Velocity 7.60 km/s
Sub-Earth Point 51.80°N, 124.77°E
Launch Date Feb 21, 2022
Age 3.6 years
Type internet

Technical Details

Classification Payload
Mass 297.00 kg
Dry Mass 275.00 kg
Total Mass 297.00 kg
Length 0.20 m
Diameter 2.80 m
Span 9.00 m
Shape Box + pan
Manufacturer SPXS
Bus Type Starlink
Phase Status In Orbit
Owner/State SPXS/US

Large Constellations

Loading constellations...